Weather Roundup
Issued by NWS Springfield, MO

Home | Current Version | Previous Version | Text Only | Print | Product List | Glossary On
Versions: 1 2 3 4 5 6 7 8 9 10 11 12 13 14 15 16 17 18 19 20 21 22 23 24 25 26 27 28 29 30 31 32 33 34 35 36 37 38 39 40 41 42 43 44 45 46 47 48 49 50
000
NZUS99 KSGF 240507
HRRSGF

HOURLY WEATHER
NATIONAL WEATHER SERVICE SPRINGFIELD MO
1200 AM CDT SUN MAY 24 2015

......SGF CWA......

CITY           SKY/WX    TMP DP  RH WIND       PRES   REMARKS
SPRINGFIELD    CLOUDY    68  58  70 SE21G29   30.04R
JOPLIN         RAIN      67  64  90 SE12      29.98F FOG
WEST PLAINS    MOCLDY    65  54  67 SE3       30.12F
ROLLA          CLOUDY    63  52  67 SE10      30.09F
OSAGE BEACH    CLOUDY    66  54  63 SE8       30.07S
BRANSON        CLOUDY    66  59  77 SE14G21   30.07F

......SURROUNDING SGF CWA......

CITY           SKY/WX    TMP DP  RH WIND       PRES   REMARKS
CHANUTE        HVY RAIN  66  65  96 SE10G20   29.92F FOG
PARSONS        HVY RAIN  66  65  96 S5        29.94R
COFFEYVILLE    RAIN      65  64  97 S7        29.94R FOG
EMPORIA        LGT RAIN  63  62  97 E16G24    29.87R
GROVE OK       RAIN      68  68 100 E6        29.95F
ROGERS AR      LGT RAIN  70  64  81 SE14G22   30.02S
SILOAM SPRINGS CLOUDY    68  61  77 SE15G22   30.01F
HARRISON AR    CLOUDY    66  60  81 SE8       30.08R
NEAR YELLVILLE CLOUDY    68  57  68 CALM      30.08R

......KANSAS AND MISSOURI......

CITY           SKY/WX    TMP DP  RH WIND       PRES   REMARKS
KANSAS CTY INT RAIN      61  60  97 E14G21    30.02F FOG
DOWNTOWN KC    HVY RAIN  62  59  90 E8        30.01F FOG
COLUMBIA       CLOUDY    66  53  63 SE8       30.09F
SEDALIA        LGT RAIN  63  58  83 E5        30.09R
ST JOSEPH      LGT RAIN  61  59  93 E16       30.00F
ST LOUIS       CLOUDY    70  51  51 E7        30.14S
SPIRIT OF STL  CLOUDY    63  53  70 CALM      30.11F
KIRKSVILLE     CLOUDY    65  55  70 SE5       30.11S
WICHITA        LGT RAIN  59  58  96 S7        29.94R
TOPEKA         HVY RAIN  62  61  96 E13G22    29.95F FOG
OLATHE         HVY RAIN  62  61  96 E10       30.00S FOG

......TENNESSEE......

CITY           SKY/WX    TMP DP  RH WIND       PRES   REMARKS
MEMPHIS        FAIR      73  57  57 SE6       30.12F
NASHVILLE      MOCLDY    67  55  65 SE6       30.22F

......ARKANSAS.......

CITY           SKY/WX    TMP DP  RH WIND       PRES   REMARKS
FAYETTEVILLE   LGT RAIN  71  65  81 SE15G24   30.01F
FT SMITH       CLOUDY    74  65  73 SE8       30.00R
LITTLE ROCK    MOCLDY    72  63  73 SE5       30.06F

......OKLAHOMA.......

CITY           SKY/WX    TMP DP  RH WIND       PRES   REMARKS
TULSA          LGT RAIN  65  65 100 W7        29.96F FOG
PONCA CITY     LGT RAIN  63  62  97 S8G22     29.96R
MCALESTER      TSTM      71  69  93 S15G28    29.98S FOG
OKLAHOMA CITY  LGT RAIN  61  60  97 S8        29.99F

......IOWA............

CITY           SKY/WX    TMP DP  RH WIND       PRES   REMARKS
DES MOINES     CLOUDY    68  53  58 SE9       30.07F
QUAD CITIES    MOCLDY    61  49  64 SE6       30.13F

......ILLINOIS........

CITY           SKY/WX    TMP DP  RH WIND       PRES   REMARKS
QUINCY         CLOUDY    67  51  56 SE8       30.11F
CHICAGO        PTCLDY    63  45  51 S6        30.20S




USA.gov is the U.S. government's official web portal to all federal, state and local government web resources and services.